Terminal Aerodrome Forecast
Issued by NWS Anchorage, AK

Home | Current Version | Previous Version | Text Only | Print | Product List | Glossary On
Versions: 1 2 3 4 5 6 7 8 9 10 11 12 13 14 15 16 17 18 19 20 21 22 23 24 25 26 27 28 29 30 31 32 33 34 35 36 37 38 39 40 41 42
000
FTAK31 PANC 132325
TAFANC
TAF
PANC 132325Z 1400/1506 17013G20KT P6SM VCSH FEW050 SCT080 BKN100
     FM140600 19008KT P6SM BKN050 OVC120
     FM140900 VRB03KT P6SM BKN050 BKN120
     FM142000 25011KT P6SM SCT070=

USA.gov is the U.S. government's official web portal to all federal, state and local government web resources and services.